Weather Roundup
Issued by NWS Springfield, MO

Home | Current Version | Previous Version | Text Only | Print | Product List | Glossary On
Versions: 1 2 3 4 5 6 7 8 9 10 11 12 13 14 15 16 17 18 19 20 21 22 23 24 25 26 27 28 29 30 31 32 33 34 35 36 37 38 39 40 41 42 43 44 45 46 47 48 49 50
000
NZUS99 KSGF 080407
HRRSGF

HOURLY WEATHER
NATIONAL WEATHER SERVICE SPRINGFIELD MO
1000 PM CST SUN FEB 07 2016

......SGF CWA......

CITY           SKY/WX    TMP DP  RH WIND       PRES   REMARKS
SPRINGFIELD    CLOUDY    42  15  33 NW15G23   30.01S
JOPLIN         MOCLDY    41  19  41 NW15      30.09R
WEST PLAINS    CLEAR     42  22  44 W9        29.97F
ROLLA          MOCLDY    41  19  41 W13       29.89F
OSAGE BEACH    CLOUDY    45  19  36 W12G21    29.94F
BRANSON        CLEAR     43  16  33 CALM      30.03F

......SURROUNDING SGF CWA......

CITY           SKY/WX    TMP DP  RH WIND       PRES   REMARKS
CHANUTE        CLEAR     41  20  43 NW13      30.11S
PARSONS        CLEAR     38  20  48 NW8       30.13S WCI  32
COFFEYVILLE    PTCLDY    42  20  41 W9        30.14R
EMPORIA        PTCLDY    35  22  58 W12       30.10F WCI  27
GROVE OK       PTCLDY    45  19  36 NW8       30.12S
ROGERS AR      CLEAR     42  14  32 W12       30.07F
SILOAM SPRINGS MOCLDY    41  16  36 NW9       30.10S
HARRISON AR    CLEAR     43  17  35 NW7G18    30.03S
NEAR YELLVILLE CLEAR     46  18  31 W14       30.00S

......KANSAS AND MISSOURI......

CITY           SKY/WX    TMP DP  RH WIND       PRES   REMARKS
KANSAS CTY INT CLOUDY    36  29  75 NW15G23   30.01S WCI  27
DOWNTOWN KC    CLOUDY    39  28  64 NW13G20   30.01S WCI  31
COLUMBIA       MOCLDY    41  24  51 W23G32    29.90F
SEDALIA        CLOUDY    39  26  59 W17G24    29.97S WCI  30
ST JOSEPH      CLOUDY    36  27  69 NW24      30.01S WCI  24
ST LOUIS       MOCLDY    40  31  70 SW7       29.87F
SPIRIT OF STL  CLOUDY    38  30  73 SW6       29.87F WCI  33
KIRKSVILLE     CLOUDY    34  29  82 W12       29.86F WCI  25
WICHITA        CLEAR     39  20  46 NW17G30   30.19R WCI  30
TOPEKA         CLOUDY    41  23  48 W12G20    30.06F
OLATHE         CLOUDY    38  25  59 NW20G32   30.03S WCI  28

......TENNESSEE......

CITY           SKY/WX    TMP DP  RH WIND       PRES   REMARKS
MEMPHIS        PTCLDY    50  31  48 W6        29.98S
NASHVILLE      PTCLDY    46  20  35 SW8       29.92F

......ARKANSAS.......

CITY           SKY/WX    TMP DP  RH WIND       PRES   REMARKS
FAYETTEVILLE   PTCLDY    41  20  43 NW8       30.09S
FT SMITH       CLEAR     44  28  53 W10       30.12R
LITTLE ROCK    CLOUDY    54  29  38 W14       30.06R

......OKLAHOMA.......

CITY           SKY/WX    TMP DP  RH WIND       PRES   REMARKS
TULSA          MOCLDY    46  23  40 NW18G29   30.16R
PONCA CITY     CLEAR     40  21  46 W12       30.21S WCI  33
MCALESTER      PTCLDY    47  25  42 NW8       30.19R
OKLAHOMA CITY  PTCLDY    44  18  35 NW21G26   30.26R

......IOWA............

CITY           SKY/WX    TMP DP  RH WIND       PRES   REMARKS
DES MOINES     FLURRIES  33  27  78 NW25G36   29.85F WCI  20
QUAD CITIES    CLEAR     34  27  75 W10       29.75F WCI  26

......ILLINOIS........

CITY           SKY/WX    TMP DP  RH WIND       PRES   REMARKS
QUINCY         CLOUDY    37  29  72 W13G20    29.84S WCI  29
CHICAGO        PTCLDY    34  27  75 W8        29.71F WCI  27



USA.gov is the U.S. government's official web portal to all federal, state and local government web resources and services.